Weather in Beloyarskoye

Russia / Kurgan Oblast     55°19′45″N   62°22′10″E
temp.,
°C
wind,
m/s
gust,
m/s
humid.,
%
clouds,
%
prec.,
mm/h
press.,
hPa
HPBL,
m
14 august, sun
sun1423:00+15nw412530 0.0 1016224
02:00+12nnw48685 0.0 1017127
05:00+10nnw36725 0.0 1019108
08:00+14nnw46630 0.0 1020302
11:00+18nnw57460 0.0 10201631
14:00+20nnw573711 0.0 10192181
17:00+21nnw56353 0.0 10192357
20:00+16n12546 0.0 101911
15 august, mon
mon1523:00+14wnw115536 0.0 102011
02:00+14wnw1154100 0.0 102014
05:00+11nnw33675 0.0 102133
08:00+15nnw23605 0.0 1022178
11:00+20nw334559 0.0 10221050
14:00+22nw464023 0.0 10212307
17:00+22nnw57353 0.0 10202278
20:00+18nw225274 0.0 102012
16 august, tue
tue1623:00+17ne3851100 0.0 1021242
02:00+15ne345487 0.0 102287
05:00+13nnw22575 0.0 102316
08:00+16nw35555 0.0 1023235
11:00+21nw57426 0.0 10221370
14:00+22nw7104197 0.0 10212525
17:00+24nnw793860 0.0 10202741
20:00+18nw47535 0.0 1021107
17 august, wed
wed1723:00+14nnw496192 0.0 1022156
02:00+11n336737 0.0 102341
05:00+10nnw2268100 0.0 102321
08:00+14nw345873 0.0 1024230
11:00+17nnw4546100 0.0 1023816
14:00+17n4547100 0.0 1022848
17:00+17nnw3750100 0.0 1022657
20:00+15nnw2258100 0.0 102132
18 august, thu
thu1823:00+12nne2471100 0.1 1021184
02:00+11nw0187100 0.3 102068
05:00+11n2387100 0.4 1020112
08:00+12nne347590 0.0 1020336
11:00+15nne4455100 0.0 10201084
14:00+15nne5651100 0.1 10201324
17:00+16nne47387 0.1 10202017
20:00+12nne49485 0.0 1021201